Location: Axtheid
(49.6213°N, 11.8205°E)
Time: 10:50:18
(UTC+00:00)

Cosmos 1943 Rocket - Pass Details

Date: 18 February 2020
Orbit: 813 x 842 km, 71.0° (Epoch: 04 April)

Event Time Altitude Azimuth Distance (km) Brightness Sun altitude
Exits shadow 04:12:48 18° 325° (NW) 1,909 3.8 -20.9°
Maximum altitude 04:16:54 67° 246° (WSW) 882 2.0 -20.3°
Drops below altitude 10° 04:22:20 10° 165° (SSE) 2,398 4.7 -19.4°
Sets 04:24:46 0° 162° (SSE) 3,328 5.5 -19.0°
